Location: Killam
(52.7910°N, 111.8608°W)
Time: 13:22:20
(UTC+00:00)

BlueWalker 3 - Pass Details

Date: 28 January 2026
Orbit: 450 x 461 km, 53.2° (Epoch: 11 February)

Event Time Altitude Azimuth Distance (km) Brightness Sun altitude
Rises 02:27:12 0° 264° (W) 2,457 7.0 -21.5°
Reaches altitude 10° 02:29:20 10° 265° (W) 1,584 5.6 -21.8°
Enters shadow 02:32:30 69° 279° (W) 488 1.9 -22.3°
